Hourly Weather Roundup
Issued by NWS Central Illinois

Home | Current Version | Previous Version | Text Only | Print | Product List | Glossary On
Versions: 1 2 3 4 5 6 7 8 9 10 11 12 13 14 15 16 17 18 19 20 21 22 23 24 25 26 27 28 29 30 31 32 33 34 35 36 37 38 39 40 41 42 43 44 45 46 47 48 49 50
000
NZUS43 KILX 241510
HWRILX

Area Weather Roundup
National Weather Service Lincoln IL
1000 AM CDT WED MAY 24 2017

NOTE:  "FAIR" indicates few or no clouds below 12,000 feet, with
       no sigificant weather and/or obstructions to visibility.


CITY           SKY/WX    TMP DP  RH WIND       PRES   REMARKS
Bloomington    CLOUDY    57  52  82 N13       29.58S
Champaign      CLOUDY    58  54  86 N13       29.55S
Danville       LGT RAIN  58  56  95 NW7       29.51S
Decatur        PTSUNNY   60  53  77 N9        29.56F
Effingham      CLOUDY    58  55  91 NW9       29.57F
Flora          CLOUDY    60  54  80 N12       29.55S
Galesburg      CLOUDY    56  52  87 N12       29.60S
Jacksonville   PTSUNNY   59  53  80 NW13      29.59S
Lacon          CLOUDY    58  54  87 N9        29.59R
Lawrenceville  RAIN      59  32  36 N8        29.52F
Litchfield     PTSUNNY   57  52  81 NW10      29.57F
$$


CITY           SKY/WX    TMP DP  RH WIND       PRES   REMARKS
Lincoln        CLOUDY    60  55  83 NW5       29.57F
Macomb         PTSUNNY   58  54  85 N14       29.62F
Mattoon        LGT RAIN  57  57 100 NW9       29.54S
Mt Carmel AP   LGT RAIN  59  56  92 N6        29.52F
Olney-Noble AP LGT RAIN  57  57 100 NW10      29.54F
Paris AP       LGT RAIN  58  57  96 N6        29.54S
Peoria         PTSUNNY   62  54  74 N10       29.58S
Pontiac        CLOUDY    58  57  99 NW8       29.57F FOG
Rantoul        DRIZZLE   58  57  96 N9        29.55S
Robinson       LGT RAIN  58  56  95 NW8       29.53F
Springfield    PTSUNNY   59  54  83 N8        29.59R
Taylorville    CLOUDY    56  53  87 N8        29.57F
$$

...REGIONAL REPORTS...


CITY           SKY/WX    TMP DP  RH WIND       PRES   REMARKS
Chicago O`Hare CLOUDY    57  51  80 NE14      29.58S
Kankakee       CLOUDY    58  55  91 CALM      29.56F
Moline         CLOUDY    60  50  69 N8        29.60F
Mount Sterling PTSUNNY   57  48  73 NW9       29.61S
Mount Vernon     N/A     58  53  84 VRB6      29.55F
Pittsfield     MOSUNNY   58  50  75 N8        29.61F
Quincy         PTSUNNY   57  50  77 N9        29.61F
Rockford       CLOUDY    54  52  93 N9        29.64S FOG
$$


CITY           SKY/WX    TMP DP  RH WIND       PRES   REMARKS
Burlington     CLOUDY    54  52  93 N8        29.62S
Cedar Rapids   CLOUDY    54  52  93 N12       29.65R
Des Moines     CLOUDY    55  50  83 N10       29.69S
Kirksville     CLOUDY    55  48  77 N8        29.66S
Ottumwa        CLOUDY    57  52  83 N9        29.65S
St Louis       PTSUNNY   63  50  62 NW12      29.60S
$$


CITY           SKY/WX    TMP DP  RH WIND       PRES   REMARKS
Terre Haute    LGT RAIN  59  55  87 N6        29.52F FOG
Evansville     LGT RAIN  61  57  87 NE8       29.51F FOG
Indianapolis   LGT RAIN  61  57  87 NW7       29.51F FOG
Lafayette      CLOUDY    60  56  86 VRB3      29.52F
Madison        CLOUDY    52  51  97 N10       29.65S
Milwaukee      DRZL/FOG  51  51 100 N15G22    29.62F VSB 1/2
$$





USA.gov is the U.S. government's official web portal to all federal, state and local government web resources and services.